Regional Weather Roundup
Issued by NWS

Home | Current Version | Previous Version | Graphics & Text | Print | Product List | Glossary On
Versions: 1 2 3 4 5 6 7 8 9 10 11 12 13 14 15 16 17 18 19 20 21 22 23 24 25 26 27 28 29 30 31 32 33 34 35 36 37 38 39 40 41 42 43 44 45 46 47 48 49 50
000
ASUS45 KTFX 232119
RWRMT
MONTANA HOURLY WEATHER ROUNDUP
NATIONAL WEATHER SERVICE GREAT FALLS MT
219 PM MST SUN NOV 23 2014

NOTE: "FAIR" INDICATES FEW OR NO CLOUDS BELOW 12000 FEET WITH NO
SIGNIFICANT WEATHER AND/OR OBSTRUCTIONS TO VISIBILITY.

* THESE STATIONS ARE NOT UNDER NWS QUALITY CONTROL. THEY DO NOT
   REPORT WEATHER SUCH AS PRECIPITATION OR FOG.

MTZ001>007-043-232200-
WEST OF THE DIVIDE
CITY           SKY/WX    TMP DP  RH WIND       PRES   REMARKS
KALISPELL      LGT SNOW  34  30  85 S7        29.96F VSB 2 1/2 WCI  28
MISSOULA       CLOUDY    37  28  70 S8        30.04F WCI  31
BUTTE          PTSUNNY   34  18  52 W10       29.98F WCI  26
MULLAN PASS    SNOW      27  25  92 SW8G18    29.92F VSB M1/4 WCI  19
* ESSEX        N/A       31  27  85 E5         N/A   WCI  26
* EUREKA APT   CLOUDY    36  30  79 SE12      29.94F WCI  28
* HAMILTON APT CLOUDY    41  25  53 S16       30.04F
* LIBBY APT    CLOUDY    34  30  85 NW6       29.96F WCI  29
* LINCOLN      N/A       35  22  59 SW5G17     N/A   WCI  31
* LOOKOUT PASS N/A       30  29  96 SE6G14     N/A   WCI  24
* POLSON       N/A       35  27  73 SW3G12     N/A
* RONAN APT    CLOUDY    37  28  70 SE7        N/A   WCI  32
* SEELEY LAKE  N/A       32  26  79 N4G15      N/A
* THOMP F APT  CLOUDY    32  13  45 N10G23     N/A   WCI  24
* YAAK HILL    N/A       34  31  89 NW1        N/A
$$

MTZ008-052>055-232200-
SOUTHWEST MONTANA
CITY           SKY/WX    TMP DP  RH WIND       PRES   REMARKS
BOZEMAN        CLOUDY    39  18  43 W14       29.98F WCI  31
DILLON         PTSUNNY   36  18  48 SW17      30.01F WCI  26
* W YELLOWSTON PTCLDY    26  14  60 W4G10      N/A
* ENNIS APT    PTCLDY    36  12  37 W7         N/A   WCI  30
* THREE FORKS  PTCLDY    39  16  39 W13G20     N/A   WCI  31
* BOULDER HILL N/A       32  10  40 N2G8       N/A
* MONIDA PASS  N/A       27  13  55 NW27G36    N/A   WCI  11
* RAYNOLDS PAS N/A       29 -13  15 N6         N/A   WCI  23
* WHITEHALL    N/A       40  16  38 W16G29     N/A   WCI  32
* WISE RIVER   N/A       32  15  49 W20G31     N/A   WCI  20
$$

MTZ009>010-012-014-046-048-049-054-232200-
EAST SLOPES AND CENTRAL MONTANA
CITY           SKY/WX    TMP DP  RH WIND       PRES   REMARKS
CUT BANK       CLOUDY    37  19  48 W16       29.81F WCI  28
GREAT FALLS    PTCLDY    41  16  36 W25G36    29.85F
HELENA         PTSUNNY   39  19  45 W15G25    29.95F WCI  31
MALMSTROM AFB  PTCLDY    43  16  34 W22G35    29.88F
* CONRAD       PTSUNNY   43  19  38 W20G30     N/A
* DEARBORN     N/A       41  18  39 S17G24     N/A
* EAST GLACIER N/A       33  19  56 SW11G20    N/A   WCI  24
* MONARCH      N/A       34  14  44 W16G27     N/A   WCI  24
* PENDROY      N/A       38  17  42 W21G31     N/A   WCI  28
* ROGERS PASS  N/A       29  19  66 E16G29     N/A   WCI  17
* SAINT MARY   N/A       33  23  67 S14G32     N/A   WCI  23
* SWEET GRASS  N/A       39  17  41 W17G22     N/A   WCI  30
* WHITE SULPH  N/A       37  15  41 W10G23     N/A   WCI  30
$$

MTZ011-013-016-021-035-040-045-047-050-051-232200-
NORTH CENTRAL MONTANA
CITY           SKY/WX    TMP DP  RH WIND       PRES   REMARKS
HAVRE          SUNNY     43  23  45 W9        29.83F
LEWISTOWN      PTCLDY    41  16  36 W24G33    29.84F
* N BAR RANCH  SUNNY     37  14  39 NW18G33   29.82S WCI  27
* CHINOOK      SUNNY     39  23  53 W13G18    29.82F WCI  31
* FORT BENTON  PTCLDY    46  18  33 W18G23    29.85F
* MALTA APT    PTCLDY    37  25  62 W16G23     N/A   WCI  28
* CHESTER      N/A       42  19  40 W19G28     N/A
* DENTON       N/A       43  16  34 W22G31     N/A
* GEYSER       N/A       40  15  36 W26G37     N/A   WCI  29
* JUDITH GAP   N/A       39  14  36 W19G28     N/A   WCI  29
* LOMA         N/A       45  18  34 SW24G30    N/A
$$

MTZ017>020-022>027-061-062-232200-
NORTHEAST MONTANA
CITY           SKY/WX    TMP DP  RH WIND       PRES   REMARKS
GLASGOW        LGT SNOW  27  19  72 NW17      29.81F WCI  14
GLENDIVE       PTSUNNY   25  16  69 W21G31    29.79R WCI  10
JORDAN         PTCLDY    37  25  62 NW20G28   29.80F WCI  27
SIDNEY         CLOUDY    27  16  63 W22G31    29.79R WCI  13
WOLF POINT     CLOUDY    28  16  61 NW18      29.83S WCI  15
* BEAVER HILL  N/A       23  16  74 W24G37     N/A   WCI   7
* CIRCLE       N/A       26  20  78 NW10G18    N/A   WCI  16
* LINDSAY DVD  N/A       23  17  78 NW26G34    N/A   WCI   6
* NAVAJO       N/A       21  14  74 NW24G32    N/A   WCI   4
* PLENTYWOOD A PTCLDY    19  12  74 NW17G26   29.76R WCI   4
* POPLAR APT   PTCLDY    25  18  75 N/A       29.81R
* SACO         N/A       29  19  66 NW12       N/A   WCI  19
* SCOBEY APT   PTSUNNY   23  12  63 NW21       N/A   WCI   8
$$

MTZ028>042-056>058-232200-
SOUTHCENTRAL AND SOUTHEAST MONTANA
CITY           SKY/WX    TMP DP  RH WIND       PRES   REMARKS
BAKER          CLOUDY    27  18  69 NW22G32   29.75R WCI  13
BILLINGS       PTCLDY    43  14  31 NW25G37   29.87F
LIVINGSTON     PTCLDY    41  16  36 W30G38    29.93F
MILES CITY     PTSUNNY   39  23  53 NW26G36   29.80S WCI  28
* BIG TIMBER A PTCLDY    37  14  39 SW28G39   29.89F WCI  25
* FORSYTH APT  PTCLDY    39  25  57 W14       29.81F WCI  31
* LAUREL APT   PTCLDY    45  14  28 W11G18     N/A
* ALZADA       N/A       34  22  61 W24G33     N/A   WCI  22
* HYSHAM       N/A       41  17  38 W19G28     N/A
* LAME DEER    N/A       34  20  57 W16G27     N/A   WCI  24
* REED POINT   N/A       41  18  39 W25G37     N/A
* ROSCOE HILL  N/A       37   3  24 SW9G26     N/A   WCI  30
$$

REGIONAL REPORTS...DAKOTAS
CITY           SKY/WX    TMP DP  RH WIND       PRES   REMARKS
WILLISTON      CLOUDY    19  12  74 NW16      29.76R WCI   4
DICKINSON      CLOUDY    25  16  69 NW26G41   29.64R WCI   9
BEACH          LGT RAIN  23  19  85 NW25G41   29.73R WCI   7
CROSBY         CLOUDY    18  10  71 NW21G31   29.73R WCI   1
TIOGA          LGT SNOW  16  14  92 NW23G32   29.71R WCI  -2
BISMARCK       CLOUDY    25  16  69 NW20G30   29.62S WCI  11
GRAND FORKS    CLOUDY    28  27  96 N17       29.46R WCI  16
FARGO          CLOUDY    36  21  54 W12       29.46S WCI  28
BUFFALO SD     PTCLDY    34  19  54 NW35G48   29.61R WCI  19
RAPID CITY     PTSUNNY   39  21  48 NW40G51   29.69S WCI  26
$$

REGIONAL REPORTS...WYOMING/IDAHO/WASHINGTON
CITY           SKY/WX    TMP DP  RH WIND       PRES   REMARKS
SHERIDAN       CLOUDY    37  18  46 NW28      29.85F WCI  25
CODY           PTCLDY    37   9  31 W15G22    29.87F WCI  28
YELLOWSTONE LA PTCLDY    23   9  55 VRB7G18   29.97F WCI  15
SALMON         PTSUNNY   37  27  67 N5        30.09F WCI  33
MULLAN PASS    SNOW      27  25  92 SW8G18    29.92S VSB M1/4 WCI  19
SAND POINT     RAIN      34  34 100 S5        30.00F WCI  29
SPOKANE        LGT RAIN  41  34  76 SW22G32   29.98F
$$

REGIONAL REPORTS...ALBERTA
CITY           SKY/WX    TMP DP  RH WIND       PRES   REMARKS
CALGARY        CLOUDY    34  21  59 S7        29.67F WCI  28
LETHBRIDGE     PTSUNNY   41  21  45 W26G37    29.75F
MEDICINE HAT   N/A       37  25  62 SW9       29.79F WCI  30
EDMONTON       PTSUNNY   25  19  78 S9        29.68F WCI  16
WATERTON GATE  N/A       36  21  54 SW20G33    N/A   WCI  25
CARDSTON       N/A       37  21  52 SW6        N/A   WCI  32
MILK RIVER     N/A       39  21  48 W13        N/A   WCI  31
$$

REGIONAL REPORTS...SASKATCHEWAN
CITY           SKY/WX    TMP DP  RH WIND       PRES   REMARKS
SWIFT CURRENT  PTSUNNY   18  12  77 NW14      29.78S WCI   4
MOOSE JAW      SNOW      18  12  77 NW14      29.82R WCI   4
REGINA         PTSUNNY   14  10  84 NW17      29.79R WCI  -2
VAL MARIE      N/A       27  19  72 N14        N/A   WCI  16
ASSINIBOIA     N/A       19  14  81 NW16       N/A   WCI   4
CORONACH       N/A       21  16  81 NW17       N/A   WCI   7

$$



USA.gov is the U.S. government's official web portal to all federal, state and local government web resources and services.